Weather History for Shannon, Ireland

Change the Weather History Date:

Wednesday, May 8, 2013

  Actual Average Record
Temperature  
Mean Temperature 50 °F -  
Max Temperature 54 °F 61 °F 75 °F (2000)
Min Temperature 46 °F 46 °F 39 °F (2004)
Degree Days  
Heating Degree Days 15    
Moisture  
Dew Point 47 °F    
Average Humidity 89    
Maximum Humidity 100    
Minimum Humidity 76    
Precipitation  
Precipitation 0.20 in 0.08 in - ()
Sea Level Pressure  
Sea Level Pressure 29.41 in    
Wind  
Wind Speed 16 mph ()    
Max Wind Speed 33 mph    
Max Gust Speed 48 mph    
Visibility 5.2 miles    
Events Rain    
Averages and records for this station are not official NWS values.
T = Trace of Precipitation, MM = Missing Value Source: Averaged Metar Reports

Daily Weather History Graph

Daily Weather History Graph

Search for Another Location

Airport:

Trip Planner

Search our weather history database for the weather conditions in past years. The results will help you decide how hot, cold, wet, or windy it might be!

Date:

Astronomy

May. 08, 2013 Rise Set
Actual Time 5:50 AM IST 9:15 PM IST
Civil Twilight 5:09 AM IST 9:56 PM IST
Nautical Twilight 4:13 AM IST 10:53 PM IST
Astronomical Twilight 2:53 AM IST 12:15 AM IST
Moon 5:03 AM IST (5/8) 7:52 PM IST (5/8)
Length of Visible Light 16h 47m
Length of Day
15h 24m
Waning Crescent, 2% of the Moon is Illuminated
May 8
Waning Crescent
May 10
New
May 18
First Quarter
May 25
Full
May 31
Last Quarter

Hourly Weather History & Observations

Time (IST) Temp. Windchill Dew Point Humidity Pressure Visibility Wind Dir Wind Speed Gust Speed Precip Events Conditions
12:00 AM 51.8 °F - 50.0 °F 94% 29.53 in 3.7 mi ENE 10.4 mph - N/A Rain Rain
12:30 AM 51.8 °F - 50.0 °F 94% 29.50 in 3.7 mi ENE 11.5 mph - N/A Rain Rain
1:00 AM 52 °F - 50 °F 91% 29.49 in 5 mi NE 13.4 mph - - Rain Light Rain
1:00 AM 51.8 °F - 50.0 °F 94% 29.47 in 5.0 mi NE 12.7 mph - N/A Rain Light Rain
1:30 AM 51.8 °F - 50.0 °F 94% 29.44 in 2.5 mi NE 10.4 mph - N/A Rain Rain
2:00 AM 51.8 °F - 50.0 °F 94% 29.42 in 2.5 mi NE 10.4 mph - N/A Rain Rain
2:30 AM 51.8 °F - 51.8 °F 100% 29.39 in 2.5 mi ENE 8.1 mph - N/A Rain Light Rain
3:00 AM 53.6 °F - 51.8 °F 94% 29.39 in 2.5 mi East 9.2 mph - N/A   Light Drizzle
3:30 AM 53.6 °F - 51.8 °F 94% 29.36 in 5.0 mi East 12.7 mph - N/A   Light Drizzle
4:00 AM 53.6 °F - 51.8 °F 94% 29.33 in 6.2 mi East 11.5 mph - N/A   Mostly Cloudy
4:30 AM 53.6 °F - 51.8 °F 94% 29.33 in 6.2 mi East 11.5 mph - N/A   Mostly Cloudy
5:00 AM 53.6 °F - 51.8 °F 94% 29.33 in 6.2 mi ESE 6.9 mph - N/A   Mostly Cloudy
5:30 AM 53.6 °F - 51.8 °F 94% 29.33 in 1.9 mi ESE 6.9 mph - N/A Rain Light Rain
6:00 AM 53.6 °F - 51.8 °F 94% 29.30 in 1.9 mi SE 4.6 mph - N/A Rain Light Rain
6:30 AM 53.6 °F - 51.8 °F 94% 29.30 in 1.9 mi South 6.9 mph - N/A   Light Drizzle
7:00 AM 52 °F - 51 °F 97% 29.33 in 7 mi SW 13.4 mph - - Rain Light Drizzle
7:00 AM 51.8 °F - 51.8 °F 100% 29.33 in 6.2 mi SW 13.8 mph - N/A   Light Drizzle
7:30 AM 51.8 °F - 51.8 °F 100% 29.33 in 6.2 mi WSW 18.4 mph - N/A Rain Light Rain
8:00 AM 51.8 °F - 50.0 °F 94% 29.33 in 3.7 mi WSW 18.4 mph - N/A Rain Light Rain
8:30 AM 51.8 °F - 51.8 °F 100% 29.33 in 6.2 mi SW 19.6 mph - N/A   Mostly Cloudy
9:00 AM 51.8 °F - 50.0 °F 94% 29.36 in 6.2 mi SW 20.7 mph - N/A   Mostly Cloudy
9:30 AM 51.8 °F - 50.0 °F 94% 29.39 in 6.2 mi WSW 20.7 mph - N/A   Mostly Cloudy
10:00 AM 51.8 °F - 50.0 °F 94% 29.36 in 6.2 mi SW 23.0 mph - N/A   Mostly Cloudy
10:30 AM 51.8 °F - 50.0 °F 94% 29.39 in 6.2 mi SW 19.6 mph - N/A   Mostly Cloudy
11:00 AM 51.8 °F - 48.2 °F 88% 29.39 in 6.2 mi SW 21.9 mph - N/A   Mostly Cloudy
11:30 AM 51.8 °F - 48.2 °F 88% 29.39 in 6.2 mi SW 26.5 mph - N/A Rain Light Rain Showers
12:00 PM 53.6 °F - 48.2 °F 82% 29.39 in 6.2 mi SW 26.5 mph - N/A   Scattered Clouds
12:30 PM 51.8 °F - 48.2 °F 88% 29.39 in 4.3 mi SW 27.6 mph - N/A Rain Light Rain Showers
1:00 PM 51 °F - 47 °F 81% 29.42 in 7 mi SW 22.4 mph - - Rain Light Rain Showers
1:00 PM 51.8 °F - 46.4 °F 82% 29.42 in 6.2 mi SW 23.0 mph 35.7 mph N/A Rain Light Rain Showers
1:30 PM 53.6 °F - 46.4 °F 77% 29.42 in 6.2 mi SW 25.3 mph - N/A Rain Light Rain Showers
2:00 PM 53.6 °F - 46.4 °F 77% 29.42 in 6.2 mi SW 25.3 mph - N/A   Scattered Clouds
2:30 PM 51.8 °F - 44.6 °F 76% 29.42 in 6.2 mi SW 26.5 mph - N/A Rain Light Rain Showers
3:00 PM 50.0 °F - 44.6 °F 82% 29.42 in 4.3 mi SW 31.1 mph - N/A Rain Light Rain Showers
3:30 PM 48.2 °F - 44.6 °F 87% 29.44 in 5.0 mi SW 26.5 mph - N/A Rain Light Rain Showers
4:00 PM 50.0 °F - 44.6 °F 82% 29.44 in 5.6 mi SW 27.6 mph - N/A Rain Light Rain Showers
4:30 PM 48.2 °F - 44.6 °F 87% 29.44 in 5.0 mi SW 29.9 mph - N/A Rain Light Rain Showers
5:00 PM 50.0 °F - 44.6 °F 82% 29.44 in 6.2 mi SW 29.9 mph - N/A   Mostly Cloudy
5:30 PM 48.2 °F - 44.6 °F 87% 29.44 in 2.5 mi SW 33.4 mph 48.3 mph N/A Rain Light Rain Showers
6:00 PM 46.4 °F 38.5 °F 44.6 °F 93% 29.47 in 6.2 mi SW 21.9 mph - N/A Rain Light Rain Showers
6:30 PM 48.2 °F - 44.6 °F 87% 29.44 in 6.2 mi SSW 24.2 mph - N/A Rain Light Rain Showers
7:00 PM 47 °F - 44 °F 86% 29.47 in 6 mi SW 24.6 mph - - Rain Light Rain Showers
7:00 PM 46.4 °F 38.1 °F 44.6 °F 93% 29.44 in 6.2 mi SW 24.2 mph - N/A Rain Light Rain Showers
7:30 PM 46.4 °F 37.9 °F 42.8 °F 87% 29.44 in 6.2 mi SSW 25.3 mph - N/A   Mostly Cloudy
8:00 PM 48.2 °F - 42.8 °F 82% 29.44 in 3.7 mi SSW 24.2 mph - N/A Rain Light Rain Showers
8:30 PM 46.4 °F 37.9 °F 42.8 °F 87% 29.44 in 5.6 mi SSW 25.3 mph - N/A Rain Light Rain Showers
9:00 PM 46.4 °F 39.2 °F 42.8 °F 87% 29.44 in 6.2 mi South 18.4 mph - N/A   Mostly Cloudy
9:30 PM 46.4 °F 37.9 °F 41.0 °F 81% 29.44 in 5.6 mi South 25.3 mph - N/A Rain Light Rain Showers
10:00 PM 46.4 °F 37.7 °F 41.0 °F 81% 29.44 in 6.2 mi South 26.5 mph - N/A Rain Light Rain
10:30 PM 46.4 °F 38.1 °F 41.0 °F 81% 29.44 in 6.2 mi South 24.2 mph - N/A   Mostly Cloudy
11:00 PM 46.4 °F 37.5 °F 41.0 °F 81% 29.42 in 6.2 mi South 27.6 mph 39.1 mph N/A   Mostly Cloudy
11:30 PM 46.4 °F 37.5 °F 41.0 °F 81% 29.42 in 6.2 mi South 27.6 mph - N/A Rain Light Rain